Massena, NY

1:00 PM EDT on April 30, 2017 (GMT -0400)
Massena International-Richards

Weather History for KMSS - November, 2011

Change the Weather History Date:

Wednesday, November 23, 2011

  Actual Average Record
Temperature  
Mean Temperature 31 °F 32 °F  
Max Temperature 32 °F 40 °F 65 °F (1963)
Min Temperature 29 °F 25 °F 0 °F (2000)
Degree Days  
Heating Degree Days 34 33  
Month to date heating degree days 540 649  
Since 1 July heating degree days 1145 1530  
Cooling Degree Days 0 0  
Month to date cooling degree days 0  
Year to date cooling degree days 363  
Moisture  
Dew Point 27 °F    
Average Humidity 73    
Maximum Humidity 92    
Minimum Humidity 54    
Precipitation  
Precipitation 0.22 in 0.10 in 0.83 in (1992)
Month to date precipitation 0.76 2.38  
Year to date precipitation 28.13 31.88  
Sea Level Pressure  
Sea Level Pressure 29.98 in    
Wind  
Wind Speed 10 mph (NE)    
Max Wind Speed 23 mph    
Max Gust Speed 31 mph    
Visibility 3 miles    
Events Fog , Snow    
T = Trace of Precipitation, MM = Missing Value Source: NWS Daily Summary

Daily Weather History Graph

Daily Weather History Graph

Search for Another Location

Airport or City:

Trip Planner

Search our weather history database for the weather conditions in past years. The results will help you decide how hot, cold, wet, or windy it might be!

Date:

Astronomy

Nov. 23, 2011 Rise Set
Actual Time 7:07 AM EST 4:24 PM EST
Civil Twilight 6:34 AM EST 4:56 PM EST
Nautical Twilight 5:58 AM EST 5:32 PM EST
Astronomical Twilight 5:23 AM EST 6:07 PM EST
Moon 5:06 AM EST (11/23) 3:04 PM EST (11/23)
Length of Visible Light 10h 21m
Length of Day
9h 16m
Waning Crescent, 4% of the Moon is Illuminated
Nov 23
Waning Crescent
Nov 25
New
Dec 2
First Quarter
Dec 10
Full
Dec 17
Last Quarter

Hourly Weather History & Observations

Time (EST) Temp. Windchill Dew Point Humidity Pressure Visibility Wind Dir Wind Speed Gust Speed Precip Events Conditions
12:53 AM 30.0 °F 20.5 °F 21.0 °F 69% 30.10 in 3.0 mi ENE 11.5 mph - 0.00 in Snow Light Snow
1:08 AM 30.2 °F 21.3 °F 21.2 °F 69% 30.06 in 1.8 mi ENE 10.4 mph - 0.00 in Snow Light Snow
1:15 AM 28.4 °F 18.5 °F 23.0 °F 80% 30.07 in 1.5 mi ENE 11.5 mph - 0.00 in Snow Light Snow
1:24 AM 28.4 °F 18.5 °F 24.8 °F 86% 30.05 in 1.0 mi NE 11.5 mph 18.4 mph 0.00 in Snow Light Snow
1:39 AM 28.4 °F 17.0 °F 24.8 °F 86% 30.04 in 1.0 mi ENE 15.0 mph 19.6 mph 0.01 in Snow Light Snow
1:53 AM 28.9 °F 19.2 °F 26.1 °F 89% 30.06 in 1.2 mi ENE 11.5 mph - 0.02 in Snow Light Snow
2:11 AM 30.2 °F 22.6 °F 26.6 °F 86% 30.03 in 1.2 mi NE 8.1 mph - 0.01 in Snow Light Snow
2:19 AM 30.2 °F 21.3 °F 26.6 °F 86% 30.02 in 1.2 mi NE 10.4 mph - 0.02 in Snow Light Snow
2:41 AM 30.2 °F 20.2 °F 26.6 °F 86% 30.00 in 0.8 mi NE 12.7 mph - 0.03 in Snow Light Snow
2:51 AM 30.2 °F 19.3 °F 26.6 °F 86% 29.98 in 1.0 mi NE 15.0 mph - 0.04 in Snow Light Snow
2:53 AM 30.0 °F 19.1 °F 27.0 °F 88% 30.00 in 1.0 mi NE 15.0 mph - 0.04 in Snow Light Snow
3:07 AM 30.2 °F 19.3 °F 26.6 °F 86% 29.97 in 2.0 mi NE 15.0 mph - 0.02 in Snow Light Snow
3:31 AM 30.2 °F 18.9 °F 26.6 °F 86% 29.96 in 1.8 mi NE 16.1 mph - 0.04 in Snow Light Snow
3:51 AM 30.2 °F 19.8 °F 28.4 °F 93% 29.94 in 1.0 mi NE 13.8 mph - 0.06 in Snow Light Snow
3:53 AM 30.2 °F 19.3 °F 28.4 °F 93% 29.94 in 1.0 mi NE 15.0 mph - N/A Snow Light Snow
4:10 AM 30.2 °F 18.5 °F 28.4 °F 93% 29.91 in 0.8 mi NE 17.3 mph 25.3 mph 0.02 in Snow Light Snow
4:53 AM 30.9 °F 19.1 °F 28.0 °F 89% 29.92 in 1.0 mi NE 18.4 mph - 0.04 in Snow Light Snow
5:53 AM 32.0 °F 21.2 °F 28.4 °F 87% 29.88 in 1.0 mi NE 16.1 mph 23.0 mph N/A Snow Light Snow
6:45 AM 30.2 °F 18.9 °F 26.6 °F 86% 29.88 in 0.8 mi NE 16.1 mph - 0.02 in Snow Light Snow
6:53 AM 30.2 °F 18.9 °F 26.6 °F 86% 29.88 in 0.8 mi NE 16.1 mph - N/A Snow Light Snow
7:26 AM 30.2 °F 19.8 °F 26.6 °F 86% 29.88 in 0.5 mi NE 13.8 mph - 0.01 in Fog , Snow Snow
7:53 AM 30.0 °F 18.3 °F 27.0 °F 88% 29.90 in 0.2 mi NE 17.3 mph - 0.01 in Fog , Snow Snow
8:53 AM 28.9 °F 17.3 °F 26.1 °F 89% 29.91 in 0.8 mi NNE 16.1 mph - 0.01 in Snow Light Snow
9:30 AM 30.2 °F 18.5 °F 26.6 °F 86% 29.89 in 1.0 mi NNE 17.3 mph - 0.00 in Snow Light Snow
9:53 AM 30.0 °F 18.3 °F 26.1 °F 85% 29.92 in 1.2 mi NE 17.3 mph - 0.00 in Snow Light Snow
9:58 AM 30.2 °F 18.1 °F 26.6 °F 86% 29.90 in 1.5 mi NNE 18.4 mph - 0.00 in Snow Light Snow
10:21 AM 30.2 °F 18.5 °F 26.6 °F 86% 29.91 in 1.2 mi NE 17.3 mph - 0.00 in Snow Light Snow
10:44 AM 30.2 °F 18.1 °F 26.6 °F 86% 29.90 in 1.5 mi NE 18.4 mph - 0.00 in Snow Light Snow
10:53 AM 30.0 °F 19.5 °F 27.0 °F 88% 29.92 in 1.8 mi NE 13.8 mph - 0.00 in Snow Light Snow
11:00 AM 30.2 °F 18.5 °F 26.6 °F 86% 29.90 in 2.0 mi NE 17.3 mph 24.2 mph 0.00 in Snow Light Snow
11:14 AM 30.2 °F 19.3 °F 26.6 °F 86% 29.91 in 3.0 mi NE 15.0 mph - 0.00 in   Haze
11:39 AM 30.2 °F 20.8 °F 26.6 °F 86% 29.90 in 4.0 mi NE 11.5 mph - 0.00 in Snow Light Snow
11:53 AM 30.9 °F 20.2 °F 27.0 °F 85% 29.93 in 4.0 mi NE 15.0 mph - 0.00 in Snow Light Snow
12:21 PM 30.2 °F 19.8 °F 26.6 °F 86% 29.92 in 2.5 mi NNE 13.8 mph - 0.00 in Snow Light Snow
12:31 PM 30.2 °F 18.9 °F 26.6 °F 86% 29.91 in 1.2 mi NE 16.1 mph - 0.00 in Snow Light Snow
12:53 PM 30.9 °F 20.7 °F 27.0 °F 85% 29.94 in 1.5 mi NNE 13.8 mph - 0.00 in Snow Light Snow
1:01 PM 30.2 °F 21.3 °F 26.6 °F 86% 29.92 in 3.0 mi NNE 10.4 mph - 0.00 in Snow Light Snow
1:40 PM 32.0 °F 23.6 °F 26.6 °F 80% 29.94 in 2.0 mi NNE 10.4 mph - 0.00 in Snow Light Snow
1:53 PM 32.0 °F 24.2 °F 27.0 °F 82% 29.96 in 1.5 mi NNE 9.2 mph - 0.00 in Snow Light Snow
2:35 PM 32.0 °F 24.8 °F 26.6 °F 80% 29.96 in 3.0 mi North 8.1 mph - 0.00 in   Haze
2:53 PM 32.0 °F 24.2 °F 27.0 °F 82% 30.00 in 3.0 mi NNE 9.2 mph - 0.00 in Snow Light Snow
3:22 PM 32.0 °F 23.0 °F 26.6 °F 80% 30.00 in 3.0 mi NNE 11.5 mph - 0.00 in Snow Light Snow
3:25 PM 32.0 °F 24.2 °F 26.6 °F 80% 30.00 in 2.5 mi NNE 9.2 mph - 0.00 in Snow Light Snow
3:36 PM 30.2 °F 22.6 °F 26.6 °F 86% 30.00 in 1.5 mi NNE 8.1 mph - N/A Snow Light Snow
3:43 PM 30.2 °F 22.6 °F 26.6 °F 86% 30.00 in 1.8 mi NNE 8.1 mph - 0.00 in Snow Light Snow
3:49 PM 30.2 °F 22.6 °F 26.6 °F 86% 30.00 in 3.0 mi NNE 8.1 mph - 0.00 in Snow Light Snow
3:50 PM 30.9 °F 23.5 °F 27.0 °F 85% 30.02 in 3.0 mi NNE 8.1 mph - 0.00 in   Overcast
4:02 PM 30.2 °F 24.3 °F 26.6 °F 86% 30.01 in 6.0 mi NNE 5.8 mph - N/A   Overcast
4:46 PM 30.2 °F 23.4 °F 26.6 °F 86% 30.02 in 9.0 mi NNE 6.9 mph - N/A   Overcast
4:53 PM 30.9 °F 25.2 °F 27.0 °F 85% 30.04 in 10.0 mi NE 5.8 mph - N/A   Overcast
5:53 PM 30.9 °F - 27.0 °F 85% 30.06 in 6.0 mi Calm Calm - N/A   Overcast
6:53 PM 30.9 °F - 27.0 °F 85% 30.10 in 10.0 mi Calm Calm - N/A   Overcast
7:53 PM 30.0 °F - 27.0 °F 88% 30.10 in 10.0 mi Calm Calm - N/A   Overcast
8:53 PM 30.0 °F - 27.0 °F 88% 30.12 in 10.0 mi Calm Calm - N/A   Overcast
9:53 PM 30.2 °F - 26.6 °F 86% 30.10 in 10.0 mi Calm Calm - N/A   Overcast
10:53 PM 30.0 °F 26.5 °F 27.0 °F 88% 30.12 in 9.0 mi South 3.5 mph - N/A   Overcast
11:53 PM 30.0 °F 26.5 °F 27.0 °F 88% 30.12 in 9.0 mi SSW 3.5 mph - N/A   Overcast